Time,TemperatureF,DewpointF,PressureIn,WindDirection,WindDirectionDegrees,WindSpeedMPH,WindSpeedGustMPH,Humidity,HourlyPrecipIn,Conditions,Clouds,dailyrainin,SoftwareType,DateUTC
2013-04-30 00:00:00,51.8,51.3,30.11,ESE,112,0.0,-999.0,98,-99.99,,,0.00,Acu-Link.com,2013-04-30 04:00:00,
2013-04-30 00:15:00,51.4,50.9,30.10,ESE,112,0.0,-999.0,98,-99.99,,,0.00,Acu-Link.com,2013-04-30 04:15:00,
2013-04-30 00:30:00,51.3,50.8,30.10,SE,135,0.0,-999.0,98,-99.99,,,0.00,Acu-Link.com,2013-04-30 04:30:00,
2013-04-30 00:45:00,51.1,50.6,30.09,SE,135,0.0,-999.0,98,-99.99,,,0.00,Acu-Link.com,2013-04-30 04:45:00,
2013-04-30 01:01:00,51.1,50.6,30.10,ESE,112,0.0,-999.0,98,-99.99,,,0.00,Acu-Link.com,2013-04-30 05:01:00,
2013-04-30 01:16:00,50.7,50.2,30.08,SE,135,0.0,-999.0,98,-99.99,,,0.00,Acu-Link.com,2013-04-30 05:16:00,
2013-04-30 01:31:00,50.5,50.0,30.08,SSE,157,0.0,-999.0,98,-99.99,,,0.00,Acu-Link.com,2013-04-30 05:31:00,
2013-04-30 01:47:00,50.2,49.7,30.07,ESE,112,0.0,-999.0,98,-99.99,,,0.00,Acu-Link.com,2013-04-30 05:47:00,
2013-04-30 02:17:00,49.6,49.1,30.08,ENE,67,0.0,-999.0,98,-99.99,,,0.00,Acu-Link.com,2013-04-30 06:17:00,
2013-04-30 02:33:00,49.6,49.1,30.10,SE,135,0.0,-999.0,98,-99.99,,,0.00,Acu-Link.com,2013-04-30 06:33:00,
2013-04-30 02:48:00,49.3,48.8,30.08,ESE,112,0.0,-999.0,98,-99.99,,,0.00,Acu-Link.com,2013-04-30 06:48:00,
2013-04-30 03:03:00,49.1,48.6,30.09,ESE,112,0.0,-999.0,98,-99.99,,,0.00,Acu-Link.com,2013-04-30 07:03:00,
2013-04-30 03:18:00,48.9,48.4,30.09,ESE,112,0.0,-999.0,98,-99.99,,,0.00,Acu-Link.com,2013-04-30 07:18:00,
2013-04-30 03:34:00,48.7,48.2,30.09,ESE,112,0.0,-999.0,98,-99.99,,,0.00,Acu-Link.com,2013-04-30 07:34:00,
2013-04-30 03:49:00,48.9,48.4,30.08,ESE,112,0.0,-999.0,98,-99.99,,,0.00,Acu-Link.com,2013-04-30 07:49:00,
2013-04-30 04:04:00,49.1,48.6,30.09,ESE,112,0.0,-999.0,98,-99.99,,,0.00,Acu-Link.com,2013-04-30 08:04:00,
2013-04-30 04:20:00,48.9,48.4,30.09,ESE,112,0.0,-999.0,98,-99.99,,,0.00,Acu-Link.com,2013-04-30 08:20:00,
2013-04-30 04:35:00,48.6,48.1,30.10,East,90,0.0,-999.0,98,-99.99,,,0.00,Acu-Link.com,2013-04-30 08:35:00,
2013-04-30 04:50:00,47.8,47.3,30.09,ENE,67,0.0,-999.0,98,-99.99,,,0.00,Acu-Link.com,2013-04-30 08:50:00,
2013-04-30 05:05:00,47.7,47.2,30.09,ESE,112,0.0,-999.0,98,-99.99,,,0.00,Acu-Link.com,2013-04-30 09:05:00,
2013-04-30 05:20:00,47.8,47.3,30.10,ESE,112,0.0,-999.0,98,-99.99,,,0.00,Acu-Link.com,2013-04-30 09:20:00,
2013-04-30 05:36:00,47.5,47.0,30.09,ESE,112,0.0,-999.0,98,-99.99,,,0.00,Acu-Link.com,2013-04-30 09:36:00,
2013-04-30 05:51:00,47.1,46.6,30.12,ESE,112,0.0,-999.0,98,-99.99,,,0.00,Acu-Link.com,2013-04-30 09:51:00,
2013-04-30 06:06:00,47.1,46.6,30.11,ESE,112,0.0,-999.0,98,-99.99,,,0.00,Acu-Link.com,2013-04-30 10:06:00,
2013-04-30 06:21:00,47.5,47.0,30.13,ENE,67,0.0,-999.0,98,-99.99,,,0.00,Acu-Link.com,2013-04-30 10:21:00,
2013-04-30 06:37:00,48.0,47.5,30.13,NE,45,0.0,-999.0,98,-99.99,,,0.00,Acu-Link.com,2013-04-30 10:37:00,
2013-04-30 06:52:00,48.9,48.4,30.13,NNE,22,0.0,-999.0,98,-99.99,,,0.00,Acu-Link.com,2013-04-30 10:52:00,
2013-04-30 07:07:00,49.1,48.6,30.12,ENE,67,0.0,-999.0,98,-99.99,,,0.00,Acu-Link.com,2013-04-30 11:07:00,
2013-04-30 07:23:00,50.0,49.5,30.15,NE,45,0.0,-999.0,98,-99.99,,,0.00,Acu-Link.com,2013-04-30 11:23:00,
2013-04-30 07:38:00,51.4,48.3,30.14,ESE,112,0.0,-999.0,89,-99.99,,,0.00,Acu-Link.com,2013-04-30 11:38:00,
2013-04-30 07:53:00,52.9,47.9,30.16,ESE,112,0.0,-999.0,83,-99.99,,,0.00,Acu-Link.com,2013-04-30 11:53:00,
2013-04-30 08:09:00,53.8,48.4,30.15,NE,45,0.0,-999.0,82,-99.99,,,0.00,Acu-Link.com,2013-04-30 12:09:00,
2013-04-30 08:39:00,55.6,50.5,30.17,ESE,112,0.0,-999.0,83,-99.99,,,0.00,Acu-Link.com,2013-04-30 12:39:00,
2013-04-30 08:54:00,56.1,51.0,30.17,NNE,22,0.0,-999.0,83,-99.99,,,0.00,Acu-Link.com,2013-04-30 12:54:00,
2013-04-30 09:09:00,56.8,51.4,30.17,South,180,0.0,-999.0,82,-99.99,,,0.00,Acu-Link.com,2013-04-30 13:09:00,
2013-04-30 09:25:00,58.6,50.3,30.16,SE,135,0.0,-999.0,74,-99.99,,,0.00,Acu-Link.com,2013-04-30 13:25:00,
2013-04-30 09:40:00,60.4,50.6,30.18,SSW,202,0.0,-999.0,70,-99.99,,,0.00,Acu-Link.com,2013-04-30 13:40:00,
2013-04-30 09:55:00,62.6,49.4,30.18,WSW,247,0.0,-999.0,62,-99.99,,,0.00,Acu-Link.com,2013-04-30 13:55:00,
2013-04-30 10:11:00,63.7,49.1,30.18,NE,45,0.0,-999.0,59,-99.99,,,0.00,Acu-Link.com,2013-04-30 14:11:00,
2013-04-30 10:26:00,66.6,46.3,30.17,SSW,202,0.0,-999.0,48,-99.99,,,0.00,Acu-Link.com,2013-04-30 14:26:00,
2013-04-30 10:41:00,69.3,45.8,30.17,ESE,112,0.0,-999.0,43,-99.99,,,0.00,Acu-Link.com,2013-04-30 14:41:00,
2013-04-30 10:57:00,68.7,47.1,30.17,SE,135,0.0,-999.0,46,-99.99,,,0.00,Acu-Link.com,2013-04-30 14:57:00,
2013-04-30 11:12:00,70.3,42.8,30.17,SSE,157,0.0,-999.0,37,-99.99,,,0.00,Acu-Link.com,2013-04-30 15:12:00,
2013-04-30 11:27:00,70.2,45.4,30.16,SE,135,0.0,-999.0,41,-99.99,,,0.00,Acu-Link.com,2013-04-30 15:27:00,
2013-04-30 11:42:00,70.9,32.3,30.17,ESE,112,0.0,-999.0,24,-99.99,,,0.00,Acu-Link.com,2013-04-30 15:42:00,
2013-04-30 11:58:00,72.3,33.5,30.18,NNE,22,0.0,-999.0,24,-99.99,,,0.00,Acu-Link.com,2013-04-30 15:58:00,
2013-04-30 12:13:00,70.9,30.2,30.17,SSW,202,0.0,-999.0,22,-99.99,,,0.00,Acu-Link.com,2013-04-30 16:13:00,
2013-04-30 12:28:00,72.1,30.0,30.17,NNW,337,1.1,-999.0,21,-99.99,,,0.00,Acu-Link.com,2013-04-30 16:28:00,
2013-04-30 12:44:00,72.7,23.9,30.15,SSW,202,0.0,-999.0,16,-99.99,,,0.00,Acu-Link.com,2013-04-30 16:44:00,
2013-04-30 12:59:00,73.0,33.0,30.14,South,180,0.0,-999.0,23,-99.99,,,0.00,Acu-Link.com,2013-04-30 16:59:00,
2013-04-30 13:14:00,72.5,40.1,30.15,South,180,1.7,-999.0,31,-99.99,,,0.00,Acu-Link.com,2013-04-30 17:14:00,
2013-04-30 13:30:00,73.8,42.1,30.15,NE,45,2.7,-999.0,32,-99.99,,,0.00,Acu-Link.com,2013-04-30 17:30:00,
2013-04-30 13:45:00,73.0,40.6,30.14,South,180,0.0,-999.0,31,-99.99,,,0.00,Acu-Link.com,2013-04-30 17:45:00,
2013-04-30 14:00:00,74.1,43.1,30.15,SE,135,0.0,-999.0,33,-99.99,,,0.00,Acu-Link.com,2013-04-30 18:00:00,
2013-04-30 14:15:00,74.1,38.0,30.15,SSW,202,0.0,-999.0,27,-99.99,,,0.00,Acu-Link.com,2013-04-30 18:15:00,
2013-04-30 14:30:00,74.8,38.6,30.15,SSE,157,0.0,-999.0,27,-99.99,,,0.00,Acu-Link.com,2013-04-30 18:30:00,
2013-04-30 14:45:00,73.8,33.7,30.15,ESE,112,0.0,-999.0,23,-99.99,,,0.00,Acu-Link.com,2013-04-30 18:45:00,
2013-04-30 15:01:00,73.0,33.0,30.17,SSW,202,2.7,-999.0,23,-99.99,,,0.00,Acu-Link.com,2013-04-30 19:01:00,
2013-04-30 15:16:00,71.6,32.9,30.16,ESE,112,2.7,-999.0,24,-99.99,,,0.00,Acu-Link.com,2013-04-30 19:16:00,
2013-04-30 15:31:00,71.1,34.5,30.17,South,180,1.1,-999.0,26,-99.99,,,0.00,Acu-Link.com,2013-04-30 19:31:00,
2013-04-30 15:46:00,71.8,33.1,30.16,ESE,112,4.2,-999.0,24,-99.99,,,0.00,Acu-Link.com,2013-04-30 19:46:00,
2013-04-30 16:02:00,72.0,32.2,30.16,South,180,1.1,-999.0,23,-99.99,,,0.00,Acu-Link.com,2013-04-30 20:02:00,
2013-04-30 16:17:00,70.3,30.7,30.16,SSW,202,1.7,-999.0,23,-99.99,,,0.00,Acu-Link.com,2013-04-30 20:17:00,
2013-04-30 16:32:00,72.9,30.7,30.15,SE,135,2.7,-999.0,21,-99.99,,,0.00,Acu-Link.com,2013-04-30 20:32:00,
2013-04-30 16:48:00,70.0,30.5,30.16,South,180,4.2,-999.0,23,-99.99,,,0.00,Acu-Link.com,2013-04-30 20:48:00,
2013-04-30 17:03:00,70.0,27.1,30.17,SW,225,4.7,-999.0,20,-99.99,,,0.00,Acu-Link.com,2013-04-30 21:03:00,
2013-04-30 17:18:00,69.6,31.2,30.18,South,180,0.0,-999.0,24,-99.99,,,0.00,Acu-Link.com,2013-04-30 21:18:00,
2013-04-30 17:33:00,68.2,30.0,30.16,SSW,202,2.2,-999.0,24,-99.99,,,0.00,Acu-Link.com,2013-04-30 21:33:00,
2013-04-30 17:49:00,66.7,30.7,30.18,SSW,202,1.7,-999.0,26,-99.99,,,0.00,Acu-Link.com,2013-04-30 21:49:00,
2013-04-30 18:04:00,66.7,29.8,30.16,SE,135,1.7,-999.0,25,-99.99,,,0.00,Acu-Link.com,2013-04-30 22:04:00,
2013-04-30 18:19:00,67.1,31.1,30.18,SW,225,1.7,-999.0,26,-99.99,,,0.00,Acu-Link.com,2013-04-30 22:19:00,
2013-04-30 18:35:00,66.6,31.6,30.18,South,180,1.7,-999.0,27,-99.99,,,0.00,Acu-Link.com,2013-04-30 22:35:00,
2013-04-30 18:50:00,65.3,31.4,30.18,SW,225,0.0,-999.0,28,-99.99,,,0.00,Acu-Link.com,2013-04-30 22:50:00,
2013-04-30 19:05:00,63.5,30.7,30.17,SW,225,0.0,-999.0,29,-99.99,,,0.00,Acu-Link.com,2013-04-30 23:05:00,
2013-04-30 19:20:00,61.2,31.1,30.17,SSW,202,0.0,-999.0,32,-99.99,,,0.00,Acu-Link.com,2013-04-30 23:20:00,
2013-04-30 19:36:00,60.1,32.4,30.16,SE,135,0.0,-999.0,35,-99.99,,,0.00,Acu-Link.com,2013-04-30 23:36:00,
2013-04-30 19:51:00,58.6,33.1,30.18,SSE,157,0.0,-999.0,38,-99.99,,,0.00,Acu-Link.com,2013-04-30 23:51:00,
2013-04-30 20:06:00,57.2,33.7,30.18,SSE,157,0.0,-999.0,41,-99.99,,,0.00,Acu-Link.com,2013-05-01 00:06:00,
2013-04-30 20:21:00,55.6,32.9,30.17,SSW,202,0.0,-999.0,42,-99.99,,,0.00,Acu-Link.com,2013-05-01 00:21:00,
2013-04-30 20:37:00,54.1,33.2,30.19,ESE,112,0.0,-999.0,45,-99.99,,,0.00,Acu-Link.com,2013-05-01 00:37:00,
2013-04-30 20:52:00,53.4,34.2,30.19,SSE,157,0.0,-999.0,48,-99.99,,,0.00,Acu-Link.com,2013-05-01 00:52:00,
2013-04-30 21:07:00,52.5,34.9,30.18,SSE,157,0.0,-999.0,51,-99.99,,,0.00,Acu-Link.com,2013-05-01 01:07:00,
2013-04-30 21:23:00,51.4,35.3,30.19,ESE,112,0.0,-999.0,54,-99.99,,,0.00,Acu-Link.com,2013-05-01 01:23:00,
2013-04-30 21:38:00,50.7,35.6,30.18,ESE,112,0.0,-999.0,56,-99.99,,,0.00,Acu-Link.com,2013-05-01 01:38:00,
2013-04-30 21:54:00,50.2,36.0,30.21,ESE,112,0.0,-999.0,58,-99.99,,,0.00,Acu-Link.com,2013-05-01 01:54:00,
2013-04-30 22:09:00,49.6,35.9,30.20,East,90,0.0,-999.0,59,-99.99,,,0.00,Acu-Link.com,2013-05-01 02:09:00,
2013-04-30 22:24:00,49.3,36.4,30.21,SE,135,0.0,-999.0,61,-99.99,,,0.00,Acu-Link.com,2013-05-01 02:24:00,
2013-04-30 22:39:00,48.4,37.6,30.19,ESE,112,0.0,-999.0,66,-99.99,,,0.00,Acu-Link.com,2013-05-01 02:39:00,
2013-04-30 22:54:00,48.2,37.8,30.20,ESE,112,0.0,-999.0,67,-99.99,,,0.00,Acu-Link.com,2013-05-01 02:54:00,
2013-04-30 23:10:00,47.7,38.0,30.19,East,90,0.0,-999.0,69,-99.99,,,0.00,Acu-Link.com,2013-05-01 03:10:00,
2013-04-30 23:25:00,47.3,38.0,30.20,NE,45,0.0,-999.0,70,-99.99,,,0.00,Acu-Link.com,2013-05-01 03:25:00,
2013-04-30 23:40:00,46.9,39.4,30.20,East,90,0.0,-999.0,75,-99.99,,,0.00,Acu-Link.com,2013-05-01 03:40:00,
2013-04-30 23:56:00,46.6,41.1,30.20,East,90,0.0,-999.0,81,-99.99,,,0.00,Acu-Link.com,2013-05-01 03:56:00,